EW5286 Weather Reports


Display with metric or nautical units.
time (UTC)temp
F
wind
direction
speed
MPH
gust
MPH
rain 1hr
in
rain 24hr
in
rain mn
in
humidity
%
barometer
mb
20260904173928 95 181 3.0 6.0 0.00 0.00 0.00 52 1015.2
20260904173509 95 237 2.0 5.0 0.00 0.00 0.00 52 1015.3
20260904173011 94 219 3.0 5.0 0.00 0.00 0.00 54 1013.5
20260904172929 94 230 3.0 5.0 0.00 0.00 0.00 54 1015.4
20260904172441 95 252 3.0 4.0 0.00 0.00 0.00 53 1015.5
20260904171932 94 250 0.0 4.0 0.00 0.00 0.00 54 1015.6
20260904171603 94 285 0.0 5.0 0.00 0.00 0.00 52 1013.7
20260904171431 95 276 2.0 5.0 0.00 0.00 0.00 51 1015.7
20260904170923 96 237 3.0 6.0 0.00 0.00 0.00 51 1015.7
20260904170425 95 217 3.0 6.0 0.00 0.00 0.00 51 1015.8
20260904170106 95 248 1.0 6.0 0.00 0.00 0.00 51 1013.9
20260904165936 95 63 2.0 6.0 0.00 0.00 0.00 49 1015.8
20260904165427 95 241 2.0 6.0 0.00 0.00 0.00 52 1015.8
20260904164930 95 235 4.0 6.0 0.00 0.00 0.00 51 1015.8
20260904164510 95 285 1.0 4.0 0.00 0.00 0.00 53 1014.1
20260904164443 95 265 2.0 4.0 0.00 0.00 0.00 53 1015.9
20260904163932 94 181 1.0 5.0 0.00 0.00 0.00 53 1015.8
20260904163431 94 252 4.0 7.0 0.00 0.00 0.00 54 1015.8
20260904163017 94 250 4.0 7.0 0.00 0.00 0.00 52 1014.0
20260904162943 95 245 4.0 6.0 0.00 0.00 0.00 53 1015.9
20260904162424 94 259 3.0 6.0 0.00 0.00 0.00 52 1015.8
20260904161934 95 247 4.0 6.0 0.00 0.00 0.00 52 1015.9
20260904161521 93 266 0.0 4.0 0.00 0.00 0.00 54 1013.9
20260904161443 94 266 2.0 4.0 0.00 0.00 0.00 54 1015.8
20260904160934 94 247 1.0 3.0 0.00 0.00 0.00 55 1015.8
20260904160445 94 37 0.0 2.0 0.00 0.00 0.00 54 1015.9
20260904160007 93 280 0.0 3.0 0.00 0.00 0.00 57 1014.0
20260904155926 93 278 0.0 3.0 0.00 0.00 0.00 57 1015.8
20260904155438 92 291 1.0 3.0 0.00 0.00 0.00 59 1015.9
20260904155009 92 84 1.0 5.0 0.00 0.00 0.00 58 1015.9
20260904154557 91 223 2.0 5.0 0.00 0.00 0.00 58 1014.1
20260904154429 92 182 3.0 5.0 0.00 0.00 0.00 57 1015.9
20260904153959 92 232 1.0 3.0 0.00 0.00 0.00 58 1015.9
20260904153428 90 291 0.0 3.0 0.00 0.00 0.00 61 1016.0
20260904153045 90 200 2.0 3.0 0.00 0.00 0.00 60 1014.2
20260904152939 91 212 2.0 3.0 0.00 0.00 0.00 59 1016.0
20260904152440 91 250 1.0 2.0 0.00 0.00 0.00 61 1016.0
20260904151930 90 277 0.0 2.0 0.00 0.00 0.00 63 1016.0
20260904151555 89 270 0.0 2.0 0.00 0.00 0.00 62 1014.1
20260904150925 89 259 0.0 2.0 0.00 0.00 0.00 63 1015.9
20260904150427 89 278 1.0 2.0 0.00 0.00 0.00 63 1015.9
20260904150012 88 238 0.0 2.0 0.00 0.00 0.00 64 1014.0
20260904145937 88 236 0.0 2.0 0.00 0.00 0.00 64 1015.9
20260904145447 87 283 0.0 1.0 0.00 0.00 0.00 65 1015.8
20260904144930 87 288 0.0 0.0 0.00 0.00 0.00 66 1015.9
20260904144520 86 288 0.0 0.0 0.00 0.00 0.00 68 1014.1
20260904144442 86 288 0.0 0.0 0.00 0.00 0.00 67 1015.9
20260904143922 86 288 0.0 0.0 0.00 0.00 0.00 68 1015.8
20260904143434 86 288 0.0 0.0 0.00 0.00 0.00 68 1015.8
20260904143025 85 288 0.0 0.0 0.00 0.00 0.00 70 1014.0
20260904142922 85 288 0.0 0.0 0.00 0.00 0.00 70 1015.8
20260904142425 85 288 0.0 0.0 0.00 0.00 0.00 72 1015.8
20260904141936 84 287 0.0 0.0 0.00 0.00 0.00 73 1015.8
20260904141534 83 287 0.0 1.0 0.00 0.00 0.00 73 1013.9
20260904141446 84 287 0.0 1.0 0.00 0.00 0.00 74 1015.7
20260904140924 83 287 0.0 1.0 0.00 0.00 0.00 74 1015.7
20260904140436 83 278 0.0 0.0 0.00 0.00 0.00 75 1015.7
20260904140040 82 278 0.0 0.0 0.00 0.00 0.00 76 1013.9
20260904135946 83 278 0.0 0.0 0.00 0.00 0.00 76 1015.7
20260904135427 82 278 0.0 0.0 0.00 0.00 0.00 77 1015.7
20260904134935 82 281 0.0 0.0 0.00 0.00 0.00 77 1015.7
20260904134544 81 255 0.0 0.0 0.00 0.00 0.00 78 1013.8
20260904134445 82 255 0.0 0.0 0.00 0.00 0.00 78 1015.7
20260904133927 81 255 0.0 0.0 0.00 0.00 0.00 78 1015.6
20260904133440 81 255 0.0 0.0 0.00 0.00 0.00 79 1015.7
20260904133031 80 255 0.0 0.0 0.00 0.00 0.00 79 1013.9
20260904132948 81 255 0.0 0.0 0.00 0.00 0.00 79 1015.7
20260904132439 80 255 0.0 0.0 0.00 0.00 0.00 79 1015.6
20260904131943 80 255 0.0 0.0 0.00 0.00 0.00 78 1015.6
20260904131518 80 255 0.0 0.0 0.00 0.00 0.00 79 1013.8
20260904131431 80 255 0.0 0.0 0.00 0.00 0.00 79 1015.6
20260904130942 80 255 0.0 0.0 0.00 0.00 0.00 78 1015.5
20260904130425 80 255 0.0 0.0 0.00 0.00 0.00 79 1015.4
20260904130025 79 255 0.0 0.0 0.00 0.00 0.00 78 1013.7
20260904125935 80 255 0.0 0.0 0.00 0.00 0.00 78 1015.5
20260904125444 80 255 0.0 0.0 0.00 0.00 0.00 77 1015.4
20260904124926 80 255 0.0 0.0 0.00 0.00 0.00 77 1015.3
20260904124532 79 255 0.0 0.0 0.00 0.00 0.00 78 1013.5
20260904124438 80 255 0.0 0.0 0.00 0.00 0.00 78 1015.3
20260904123939 79 255 0.0 0.0 0.00 0.00 0.00 78 1015.2
20260904123429 79 255 0.0 0.0 0.00 0.00 0.00 77 1015.2
20260904123040 79 255 0.0 0.0 0.00 0.00 0.00 78 1013.4
20260904122942 80 255 0.0 0.0 0.00 0.00 0.00 77 1015.2
20260904122422 80 255 0.0 0.0 0.00 0.00 0.00 78 1015.0
20260904121929 80 255 0.0 0.0 0.00 0.00 0.00 78 1015.0
20260904121546 79 255 0.0 0.0 0.00 0.00 0.00 78 1013.2
20260904121430 80 255 0.0 0.0 0.00 0.00 0.00 78 1015.0
20260904120922 79 255 0.0 0.0 0.00 0.00 0.00 77 1014.9
20260904120435 79 255 0.0 0.0 0.00 0.00 0.00 78 1014.9
20260904120107 79 255 0.0 0.0 0.00 0.00 0.00 77 1013.1
20260904115935 80 255 0.0 0.0 0.00 0.00 0.00 77 1014.9
20260904115426 80 255 0.0 0.0 0.00 0.00 0.00 77 1014.8
20260904114937 79 255 0.0 0.0 0.00 0.00 0.00 77 1014.8
20260904114602 79 255 0.0 0.0 0.00 0.00 0.00 78 1013.0
20260904114441 79 255 0.0 0.0 0.00 0.00 0.00 78 1014.8
20260904113931 79 255 0.0 0.0 0.00 0.00 0.00 79 1014.8
20260904113443 79 255 0.0 0.0 0.00 0.00 0.00 77 1014.8
20260904113004 79 255 0.0 0.0 0.00 0.00 0.00 77 1013.0
20260904112924 79 255 0.0 0.0 0.00 0.00 0.00 77 1014.8
20260904112435 79 255 0.0 0.0 0.00 0.00 0.00 77 1014.7
20260904111947 80 255 0.0 0.0 0.00 0.00 0.00 77 1014.7
20260904111553 79 255 0.0 0.0 0.00 0.00 0.00 77 1012.9
20260904111426 79 255 0.0 0.0 0.00 0.00 0.00 77 1014.6
20260904110938 79 255 0.0 0.0 0.00 0.00 0.00 79 1014.6
20260904110448 79 251 0.0 0.0 0.00 0.00 0.00 80 1014.6
20260904110039 78 251 0.0 0.0 0.00 0.00 0.00 80 1012.9
20260904105936 78 251 0.0 0.0 0.00 0.00 0.00 80 1014.6
20260904105433 79 251 0.0 0.0 0.00 0.00 0.00 80 1014.6
20260904104924 79 251 0.0 0.0 0.00 0.00 0.00 80 1014.6
20260904104546 79 251 0.0 0.0 0.00 0.00 0.00 80 1012.9
20260904104456 79 251 0.0 0.0 0.00 0.00 0.00 80 1014.6
20260904103946 79 251 0.0 0.0 0.00 0.00 0.00 80 1014.6
20260904103428 79 251 0.0 0.0 0.00 0.00 0.00 80 1014.6
20260904103034 78 252 0.0 0.0 0.00 0.00 0.00 81 1012.8
20260904102941 79 251 0.0 0.0 0.00 0.00 0.00 81 1014.6
20260904102451 79 251 0.0 0.0 0.00 0.00 0.00 81 1014.5
20260904101952 79 251 0.0 0.0 0.00 0.00 0.00 81 1014.6
20260904101518 78 252 0.0 0.0 0.00 0.00 0.00 81 1012.7
20260904101441 79 251 0.0 0.0 0.00 0.00 0.00 81 1014.5
20260904100948 78 251 0.0 1.0 0.00 0.00 0.00 81 1014.5
20260904100430 78 251 0.0 1.0 0.00 0.00 0.00 81 1014.5
20260904100027 78 251 0.0 1.0 0.00 0.00 0.00 81 1012.7
20260904095941 79 251 1.0 1.0 0.00 0.00 0.00 81 1014.5
20260904095430 79 251 0.0 2.0 0.00 0.00 0.00 81 1014.5
20260904094939 79 251 1.0 2.0 0.00 0.00 0.00 80 1014.5
20260904094515 78 254 0.0 2.0 0.00 0.00 0.00 80 1012.6
20260904094429 79 254 0.0 2.0 0.00 0.00 0.00 80 1014.3
20260904093941 79 254 0.0 2.0 0.00 0.00 0.00 80 1014.3
20260904093440 79 248 1.0 2.0 0.00 0.00 0.00 80 1014.3
20260904093048 79 248 1.0 3.0 0.00 0.00 0.00 80 1012.5
20260904092950 79 249 1.0 3.0 0.00 0.00 0.00 80 1014.3
20260904092441 79 248 2.0 3.0 0.00 0.00 0.00 80 1014.2
20260904091924 79 248 2.0 3.0 0.00 0.00 0.00 80 1014.2
20260904091509 78 248 2.0 3.0 0.00 0.00 0.00 80 1012.4
20260904091434 79 248 2.0 3.0 0.00 0.00 0.00 80 1014.1
20260904090945 79 250 2.0 3.0 0.00 0.00 0.00 80 1014.2
20260904090456 79 245 2.0 3.0 0.00 0.00 0.00 80 1014.1
20260904090041 79 245 1.0 3.0 0.00 0.00 0.00 80 1012.3
20260904085945 79 248 2.0 3.0 0.00 0.00 0.00 80 1014.1
20260904085438 79 244 2.0 3.0 0.00 0.00 0.00 80 1014.0
20260904084939 79 240 2.0 3.0 0.00 0.00 0.00 79 1014.0
20260904084524 79 243 2.0 3.0 0.00 0.00 0.00 79 1012.1
20260904084429 80 242 3.0 3.0 0.00 0.00 0.00 79 1014.0
20260904083930 80 239 2.0 3.0 0.00 0.00 0.00 79 1013.9
20260904083442 80 242 3.0 4.0 0.00 0.00 0.00 79 1013.9
20260904083029 79 237 3.0 4.0 0.00 0.00 0.00 79 1012.1
20260904082930 80 245 3.0 4.0 0.00 0.00 0.00 78 1013.9
20260904082433 80 241 3.0 4.0 0.00 0.00 0.00 78 1013.9
20260904081924 80 238 3.0 4.0 0.00 0.00 0.00 78 1013.8
20260904081536 79 238 3.0 4.0 0.00 0.00 0.00 78 1012.0
20260904081451 80 238 4.0 4.0 0.00 0.00 0.00 78 1013.8
20260904080931 80 238 4.0 4.0 0.00 0.00 0.00 78 1013.9
20260904080423 80 237 3.0 4.0 0.00 0.00 0.00 78 1013.9
20260904080043 80 238 3.0 4.0 0.00 0.00 0.00 78 1012.1
20260904075924 80 238 3.0 4.0 0.00 0.00 0.00 78 1013.9
20260904075504 80 240 4.0 6.0 0.00 0.00 0.00 78 1013.8
20260904074925 80 238 4.0 6.0 0.00 0.00 0.00 78 1013.8
20260904074528 80 240 4.0 5.0 0.00 0.00 0.00 78 1011.9
20260904074435 80 240 4.0 5.0 0.00 0.00 0.00 78 1013.7
20260904073937 80 257 4.0 6.0 0.00 0.00 0.00 78 1013.8
20260904073428 80 242 4.0 6.0 0.00 0.00 0.00 78 1013.9
20260904073051 80 242 4.0 5.0 0.00 0.00 0.00 78 1012.0
20260904072940 80 237 4.0 5.0 0.00 0.00 0.00 78 1013.8
20260904072450 80 242 4.0 5.0 0.00 0.00 0.00 78 1013.8
20260904072000 80 240 4.0 5.0 0.00 0.00 0.00 78 1013.8
20260904071542 80 238 4.0 5.0 0.00 0.00 0.00 78 1012.0
20260904071447 81 239 4.0 5.0 0.00 0.00 0.00 78 1013.9
20260904070928 81 240 4.0 5.0 0.00 0.00 0.00 78 1013.8
20260904070436 81 239 4.0 4.0 0.00 0.00 0.00 77 1013.8
20260904070051 81 236 3.0 4.0 0.00 0.00 0.00 77 1012.0
20260904065948 81 244 3.0 4.0 0.00 0.00 0.00 77 1013.8
20260904065428 81 240 3.0 5.0 0.00 0.00 0.00 76 1013.9
20260904064941 81 239 4.0 5.0 0.00 0.00 0.00 76 1013.9
20260904064536 81 238 4.0 5.0 0.00 0.00 0.00 76 1012.1
20260904064431 81 239 4.0 5.0 0.00 0.00 0.00 76 1013.9
20260904064001 81 236 4.0 6.0 0.00 0.00 0.00 76 1013.8
20260904063442 82 238 4.0 6.0 0.00 0.00 0.00 76 1013.8
20260904063020 81 237 3.0 5.0 0.00 0.00 0.00 76 1012.0
20260904062931 82 239 4.0 5.0 0.00 0.00 0.00 76 1013.9
20260904062443 82 239 4.0 5.0 0.00 0.00 0.00 76 1013.9
20260904061926 82 239 4.0 6.0 0.00 0.00 0.00 76 1013.9
20260904061529 81 238 4.0 6.0 0.00 0.00 0.00 75 1012.1
20260904061438 82 241 4.0 6.0 0.00 0.00 0.00 75 1013.9
20260904060946 82 238 4.0 6.0 0.00 0.00 0.00 75 1014.0
20260904060427 82 226 4.0 7.0 0.00 0.00 0.00 75 1014.0
20260904060011 82 240 3.0 8.0 0.00 0.00 0.00 74 1012.1
20260904055934 82 239 4.0 9.0 0.00 0.00 0.00 74 1013.9
20260904055445 83 219 4.0 9.0 0.00 0.00 0.00 74 1014.0
20260904054944 83 241 5.0 8.0 0.00 0.00 0.00 74 1014.1
20260904054603 82 224 4.0 7.0 0.00 0.00 0.00 74 1012.3
20260904054502 83 242 4.0 7.0 0.00 0.00 0.00 74 1014.0
20260904053942 83 243 4.0 7.0 0.00 0.00 0.00 74 1014.1
20260904053449 83 227 4.0 7.0 0.00 0.00 0.00 74 1014.0
20260904053029 82 235 3.0 7.0 0.00 0.00 0.00 74 1012.2
20260904052448 83 224 4.0 7.0 0.00 0.00 0.00 74 1013.9
20260904051949 83 238 4.0 6.0 0.00 0.00 0.00 74 1014.0
20260904051509 82 224 3.0 6.0 0.00 0.00 0.00 74 1012.2
20260904051438 83 221 4.0 6.0 0.00 0.00 0.00 74 1014.0
20260904050947 83 242 3.0 5.0 0.00 0.00 0.00 74 1013.9
20260904050457 83 219 3.0 6.0 0.00 0.00 0.00 73 1013.9
20260904050034 83 229 3.0 6.0 0.00 0.00 0.00 73 1012.1
20260904045948 83 224 4.0 6.0 0.00 0.00 0.00 73 1013.9
20260904045423 84 242 3.0 6.0 0.00 0.00 0.00 72 1013.9
20260904044930 84 205 3.0 6.0 0.00 0.00 0.00 72 1013.9
20260904044536 83 238 3.0 6.0 0.00 0.00 0.00 72 1012.0
20260904044442 84 236 3.0 6.0 0.00 0.00 0.00 72 1013.8
20260904043922 84 242 4.0 6.0 0.00 0.00 0.00 71 1013.8
20260904043434 85 219 3.0 6.0 0.00 0.00 0.00 71 1013.8
20260904043041 84 243 2.0 6.0 0.00 0.00 0.00 70 1011.9
20260904042943 85 214 3.0 6.0 0.00 0.00 0.00 70 1013.7
20260904042424 85 234 4.0 7.0 0.00 0.00 0.00 70 1013.7
20260904042006 85 253 3.0 7.0 0.00 0.00 0.00 69 1013.7
20260904041505 85 245 3.0 9.0 0.00 0.00 0.00 69 1011.9
20260904041426 85 215 4.0 9.0 0.00 0.00 0.00 69 1013.7
20260904040936 85 240 4.0 9.0 0.00 0.00 0.00 69 1013.8
20260904040447 86 257 4.0 8.0 0.00 0.00 0.00 68 1013.7
20260904040009 85 217 3.0 7.0 0.00 0.00 0.00 68 1011.9
20260904035926 86 272 3.0 7.0 0.00 0.00 0.00 68 1013.7
20260904035437 86 226 3.0 7.0 0.00 0.00 0.00 69 1013.7
20260904035008 86 238 3.0 8.0 0.00 0.00 0.00 68 1013.7
20260904034604 85 231 3.0 8.0 0.00 0.00 0.00 68 1012.0
20260904034428 86 193 3.0 7.0 0.00 0.00 0.00 68 1013.8
20260904033956 86 181 4.0 7.0 0.00 0.00 0.00 68 1013.8
20260904033425 86 161 3.0 7.0 0.00 0.00 0.00 68 1013.9
20260904033035 85 197 3.0 7.0 0.00 0.00 0.00 68 1012.1
20260904032935 86 256 3.0 7.0 0.00 0.00 0.00 68 1013.8
20260904032444 86 245 3.0 6.0 0.00 0.00 0.00 68 1013.8
20260904031925 86 208 3.0 7.0 0.00 0.00 0.00 68 1013.9
20260904031529 85 206 3.0 7.0 0.00 0.00 0.00 68 1012.1
20260904031436 86 246 3.0 6.0 0.00 0.00 0.00 68 1014.0
20260904030935 86 159 2.0 8.0 0.00 0.00 0.00 68 1013.9
20260904030427 86 210 3.0 7.0 0.00 0.00 0.00 68 1014.0
20260904030033 86 253 2.0 7.0 0.00 0.00 0.00 67 1012.1
20260904025935 86 165 3.0 7.0 0.00 0.00 0.00 67 1013.9
20260904025444 86 189 3.0 7.0 0.00 0.00 0.00 67 1013.9
20260904024934 87 165 2.0 7.0 0.00 0.00 0.00 66 1013.9
20260904024602 86 248 1.0 7.0 0.00 0.00 0.00 66 1012.1
20260904024504 87 244 3.0 7.0 0.00 0.00 0.00 66 1013.9
20260904023922 87 266 2.0 7.0 0.00 0.00 0.00 66 1013.8
20260904023450 87 245 3.0 7.0 0.00 0.00 0.00 66 1013.8
20260904023006 86 191 2.0 7.0 0.00 0.00 0.00 66 1012.0
20260904022940 87 250 3.0 7.0 0.00 0.00 0.00 66 1013.8
20260904022429 87 173 2.0 7.0 0.00 0.00 0.00 66 1013.8
20260904021933 87 164 2.0 8.0 0.00 0.00 0.00 65 1013.7
20260904021512 87 246 2.0 8.0 0.00 0.00 0.00 65 1011.8
20260904021422 87 165 3.0 8.0 0.00 0.00 0.00 65 1013.7
20260904020934 87 243 2.0 5.0 0.00 0.00 0.00 65 1013.6
20260904020505 87 240 1.0 5.0 0.00 0.00 0.00 65 1013.5
20260904020119 87 240 1.0 5.0 0.00 0.00 0.00 65 1011.6
20260904015924 88 226 2.0 5.0 0.00 0.00 0.00 64 1013.4
20260904015436 88 165 2.0 7.0 0.00 0.00 0.00 64 1013.3
20260904014947 88 239 1.0 7.0 0.00 0.00 0.00 64 1013.3
20260904014503 87 190 1.0 6.0 0.00 0.00 0.00 64 1011.5
20260904014428 88 233 2.0 6.0 0.00 0.00 0.00 64 1013.2
20260904013939 88 155 1.0 6.0 0.00 0.00 0.00 64 1013.3
20260904013448 88 131 2.0 7.0 0.00 0.00 0.00 64 1013.3
20260904013035 87 243 2.0 7.0 0.00 0.00 0.00 63 1011.4
20260904012942 88 176 3.0 7.0 0.00 0.00 0.00 63 1013.2
20260904012422 88 204 2.0 5.0 0.00 0.00 0.00 63 1013.2
20260904011930 88 186 1.0 5.0 0.00 0.00 0.00 62 1013.1
20260904011547 88 200 0.0 3.0 0.00 0.00 0.00 62 1011.2
20260904011441 89 278 1.0 3.0 0.00 0.00 0.00 62 1013.1
20260904010922 89 179 1.0 6.0 0.00 0.00 0.00 61 1013.1
20260904010433 89 200 1.0 7.0 0.00 0.00 0.00 61 1013.0
20260904010058 89 203 2.0 7.0 0.00 0.00 0.00 61 1011.2
20260904005946 89 222 3.0 7.0 0.00 0.00 0.00 61 1013.0
20260904005425 89 259 3.0 5.0 0.00 0.00 0.00 60 1012.9
20260904004936 90 235 2.0 5.0 0.00 0.00 0.00 60 1012.9
20260904004555 89 251 2.0 5.0 0.00 0.00 0.00 60 1011.1
20260904004444 90 250 3.0 5.0 0.00 0.00 0.00 60 1013.0
20260904003924 90 184 2.0 4.0 0.00 0.00 0.00 60 1013.0
20260904003456 90 214 1.0 5.0 0.00 0.00 0.00 59 1013.0
20260904003015 90 238 0.0 5.0 0.00 0.00 0.00 59 1011.1
20260904002942 90 223 1.0 5.0 0.00 0.00 0.00 59 1012.9
20260904002422 91 238 1.0 6.0 0.00 0.00 0.00 58 1012.9
20260904001934 91 227 3.0 6.0 0.00 0.00 0.00 58 1012.9
20260904001520 91 202 2.0 6.0 0.00 0.00 0.00 57 1011.1
20260904001424 91 195 3.0 6.0 0.00 0.00 0.00 57 1012.9
20260904000925 91 172 1.0 5.0 0.00 0.00 0.00 57 1012.9
20260904000440 92 250 2.0 5.0 0.00 0.00 0.00 56 1012.9
20260904000027 91 188 2.0 5.0 0.00 0.00 0.00 56 1011.1
20260903235927 92 243 2.0 5.0 0.00 0.00 0.00 56 1012.9
20260903235426 92 223 2.0 6.0 0.00 0.00 0.00 55 1012.9
20260903234939 92 228 2.0 6.0 0.00 0.00 0.00 55 1012.8
20260903234535 92 212 1.0 5.0 0.00 0.00 0.00 55 1011.0
20260903234426 92 203 2.0 5.0 0.00 0.00 0.00 55 1012.9
20260903233937 92 237 2.0 7.0 0.00 0.00 0.00 55 1012.7
20260903233447 92 181 2.0 7.0 0.00 0.00 0.00 55 1012.7
20260903233102 92 198 2.0 7.0 0.00 0.00 0.00 55 1010.9
20260903232947 93 196 4.0 7.0 0.00 0.00 0.00 55 1012.7
20260903232438 93 144 3.0 5.0 0.00 0.00 0.00 55 1012.8
20260903231930 93 160 3.0 5.0 0.00 0.00 0.00 55 1012.7
20260903231549 92 274 2.0 5.0 0.00 0.00 0.00 55 1010.8
20260903231431 93 231 1.0 5.0 0.00 0.00 0.00 55 1012.7
20260903230948 93 239 3.0 5.0 0.00 0.00 0.00 55 1012.7
20260903230428 93 194 2.0 5.0 0.00 0.00 0.00 55 1012.6
20260903230020 92 243 2.0 5.0 0.00 0.00 0.00 55 1010.8
20260903225937 93 252 2.0 5.0 0.00 0.00 0.00 54 1012.6
20260903225428 93 270 3.0 5.0 0.00 0.00 0.00 54 1012.6
20260903224925 93 252 3.0 6.0 0.00 0.00 0.00 54 1012.6
20260903224523 93 229 4.0 6.0 0.00 0.00 0.00 54 1010.7
20260903224435 93 250 4.0 6.0 0.00 0.00 0.00 54 1012.6
20260903223944 93 239 2.0 6.0 0.00 0.00 0.00 55 1012.6
20260903223425 93 231 5.0 7.0 0.00 0.00 0.00 53 1012.6
20260903223020 93 198 2.0 7.0 0.00 0.00 0.00 54 1010.8
20260903222954 93 285 3.0 7.0 0.00 0.00 0.00 55 1012.7
20260903222425 93 244 4.0 9.0 0.00 0.00 0.00 55 1012.7
20260903221927 93 263 5.0 9.0 0.00 0.00 0.00 55 1012.7
20260903221610 92 233 3.0 8.0 0.00 0.00 0.00 55 1010.8
20260903220946 93 245 5.0 8.0 0.00 0.00 0.00 56 1012.7
20260903220448 92 240 4.0 8.0 0.00 0.00 0.00 56 1012.7
20260903220009 91 248 3.0 7.0 0.00 0.00 0.00 57 1010.8
20260903215936 92 248 3.0 7.0 0.00 0.00 0.00 57 1012.7
20260903215447 92 200 3.0 8.0 0.00 0.00 0.00 57 1012.9
20260903214934 92 172 3.0 8.0 0.00 0.00 0.00 56 1012.8
20260903214558 92 221 2.0 6.0 0.00 0.00 0.00 55 1011.0
20260903214434 92 231 2.0 5.0 0.00 0.00 0.00 55 1012.8
20260903213925 93 242 3.0 6.0 0.00 0.00 0.00 54 1012.8
20260903213438 93 233 3.0 8.0 0.00 0.00 0.00 54 1012.9
20260903213105 92 215 3.0 8.0 0.00 0.00 0.00 55 1011.1
20260903213007 92 203 3.0 7.0 0.00 0.00 0.00 55 1012.9
20260903212426 92 240 3.0 8.0 0.00 0.00 0.00 56 1013.0
20260903211938 92 197 4.0 6.0 0.00 0.00 0.00 56 1013.1
20260903211549 91 244 2.0 8.0 0.00 0.00 0.00 56 1011.3
20260903211427 92 224 3.0 8.0 0.00 0.00 0.00 56 1013.2
20260903210930 92 243 4.0 8.0 0.00 0.00 0.00 55 1013.2
20260903210430 92 249 3.0 8.0 0.00 0.00 0.00 55 1013.3
20260903210027 92 186 3.0 8.0 0.00 0.00 0.00 54 1011.4
20260903205943 93 252 3.0 9.0 0.00 0.00 0.00 54 1013.3
20260903205422 93 179 5.0 9.0 0.00 0.00 0.00 53 1013.3
20260903204934 94 208 5.0 8.0 0.00 0.00 0.00 53 1013.3
20260903204533 94 233 2.0 8.0 0.00 0.00 0.00 52 1011.5
20260903204445 95 148 2.0 8.0 0.00 0.00 0.00 52 1013.3
20260903203926 94 244 4.0 9.0 0.00 0.00 0.00 51 1013.4
20260903203437 95 181 5.0 8.0 0.00 0.00 0.00 50 1013.4
20260903203040 95 234 2.0 9.0 0.00 0.00 0.00 51 1011.7
20260903202945 95 271 3.0 9.0 0.00 0.00 0.00 52 1013.5
20260903202426 94 222 5.0 9.0 0.00 0.00 0.00 53 1013.7
20260903201938 95 205 3.0 7.0 0.00 0.00 0.00 51 1013.7
20260903201549 95 221 2.0 11.0 0.00 0.00 0.00 52 1011.9
20260903201450 95 184 3.0 11.0 0.00 0.00 0.00 52 1013.8
20260903200931 95 241 3.0 11.0 0.00 0.00 0.00 50 1013.7
20260903200442 95 231 4.0 10.0 0.00 0.00 0.00 51 1013.9
20260903200055 94 214 3.0 9.0 0.00 0.00 0.00 51 1012.0
20260903195923 95 252 3.0 7.0 0.00 0.00 0.00 51 1013.9
20260903195431 94 249 3.0 7.0 0.00 0.00 0.00 52 1014.0
20260903194943 94 224 4.0 8.0 0.00 0.00 0.00 52 1014.1
20260903194603 93 243 4.0 11.0 0.00 0.00 0.00 52 1012.2
20260903194451 94 252 5.0 11.0 0.00 0.00 0.00 52 1014.0
20260903193928 95 224 6.0 11.0 0.00 0.00 0.00 50 1014.1
20260903193438 96 239 2.0 12.0 0.00 0.00 0.00 51 1014.1
20260903193039 96 145 5.0 12.0 0.00 0.00 0.00 49 1012.4
20260903192950 96 207 6.0 12.0 0.00 0.00 0.00 48 1014.2
20260903192431 98 257 3.0 7.0 0.00 0.00 0.00 48 1014.2
20260903191923 95 242 4.0 9.0 0.00 0.00 0.00 51 1014.3
20260903191546 94 185 3.0 9.0 0.00 0.00 0.00 52 1012.5
20260903191425 94 238 5.0 9.0 0.00 0.00 0.00 52 1014.4
20260903190936 95 214 5.0 8.0 0.00 0.00 0.00 50 1014.5
20260903190426 95 210 4.0 9.0 0.00 0.00 0.00 50 1014.5
20260903190036 95 241 4.0 11.0 0.00 0.00 0.00 50 1012.8
20260903185931 96 245 6.0 11.0 0.00 0.00 0.00 49 1014.6
20260903185433 96 207 7.0 10.0 0.00 0.00 0.00 49 1014.6
20260903185003 96 217 4.0 9.0 0.00 0.00 0.00 50 1014.7
20260903184517 94 214 3.0 12.0 0.00 0.00 0.00 51 1012.9
20260903184432 95 193 4.0 12.0 0.00 0.00 0.00 51 1014.7
20260903183943 94 183 6.0 12.0 0.00 0.00 0.00 51 1014.7
20260903183446 94 239 4.0 9.0 0.00 0.00 0.00 52 1014.7
20260903183004 93 221 6.0 10.0 0.00 0.00 0.00 52 1013.0
20260903182934 94 235 6.0 10.0 0.00 0.00 0.00 52 1014.9
20260903182425 94 236 6.0 10.0 0.00 0.00 0.00 52 1014.9
20260903181956 93 261 4.0 9.0 0.00 0.00 0.00 55 1014.9
20260903181603 92 251 5.0 11.0 0.00 0.00 0.00 55 1013.2
20260903181506 92 233 7.0 11.0 0.00 0.00 0.00 55 1015.1
20260903180922 93 243 8.0 11.0 0.00 0.00 0.00 53 1015.1
20260903180434 93 227 6.0 10.0 0.00 0.00 0.00 54 1015.2
20260903180054 93 245 5.0 10.0 0.00 0.00 0.00 53 1013.3
20260903175946 94 280 4.0 10.0 0.00 0.00 0.00 55 1015.1
20260903175511 93 195 6.0 13.0 0.00 0.00 0.00 54 1015.3
20260903174931 93 256 5.0 13.0 0.00 0.00 0.00 55 1015.4
20260903174522 93 217 5.0 10.0 0.00 0.00 0.00 54 1013.6
20260903174502 93 176 6.0 10.0 0.00 0.00 0.00 54 1015.5